Flag for Norway Weather past 2 weeks in Sarpsborg, Norway

Now
55 °F

Drizzle. Partly sunny.


Feels Like: 53 °F
Forecast: 49 / 64 °F
Wind: 10 mph from East

Location: Rygge

Current Time: Aug 31, 2014 at 8:57:09 AM

Latest Report: Aug 31, 2014 at 8:20 AM


Visibility: N/A

Pressure: 30.07 "Hg

Humidity: 88%

Dew point: 52 °F

Location of SarpsborgLocation

Historic Weather in Sarpsborg — Graph

°F

Sarpsborg temperature yesterday

Maximum temperature yesterday: 59 °F (at 12:20 AM)
Minimum temperature yesterday: 55 °F (at 5:50 AM)
Average temperature yesterday: 57 °F

Past Weeks' High & Low Weather Summary

 TemperatureHumidityPressure
High72 °F (Aug 16, 2:50 PM)100% (Aug 16, 7:50 AM)30.04 "Hg (Aug 16, 7:50 AM)
Low45 °F (Aug 24, 6:50 AM)38% (Aug 27, 4:20 PM)29.18 "Hg (Aug 18, 12:50 PM)
Average58 °F78%29.65 "Hg
* Reported Aug 16 7:20 AM — Aug 31 7:20 AM, Sarpsborg, Weather by CustomWeather, © 2014

Note: Actual official high and low records may vary slightly from our data, if they occured in-between our weather recording intervals... More about our weather records

Advertising

Sarpsborg weather history for previous 24 hours

 ConditionsComfort  
Time TempWeatherWind HumidityBarometerVisibility
7:20 AM
Aug 31
55 °FPartly sunny.10 mph88%30.04 "HgN/A
6:50 AM55 °FPartly cloudy.13 mph88%30.04 "HgN/A
6:20 AM55 °FPassing clouds.10 mph88%30.04 "HgN/A
6:01 AM55 °FPassing clouds.10 mph88%30.04 "HgN/A
5:20 AM55 °FDrizzle. Overcast.10 mph88%30.01 "HgN/A
4:50 AM55 °FDrizzle. Overcast.10 mph88%30.01 "HgN/A
4:20 AM55 °FDrizzle. Overcast.12 mph88%30.01 "HgN/A
3:50 AM55 °FDrizzle. Mostly cloudy.10 mph88%30.01 "HgN/A
3:20 AM57 °FMostly cloudy.10 mph88%30.01 "HgN/A
2:50 AM57 °FLight rain. Mostly cloudy.12 mph88%30.01 "HgN/A
2:20 AM57 °FDrizzle. Overcast.15 mph88%30.01 "HgN/A
1:50 AM57 °FDrizzle. Mostly cloudy.14 mph88%30.01 "HgN/A
1:20 AM57 °FDrizzle. Mostly cloudy.15 mph88%30.01 "HgN/A
12:50 AM57 °FOvercast.14 mph88%29.98 "HgN/A
12:20 AM57 °FPartly cloudy.14 mph82%29.98 "HgN/A
11:50 PM
Aug 30
57 °FPartly cloudy.14 mph88%29.98 "HgN/A
11:20 PM57 °FOvercast.14 mph88%29.98 "HgN/A
10:50 PM57 °FOvercast.14 mph88%29.98 "HgN/A
10:20 PM57 °FPassing clouds.14 mph88%29.98 "HgN/A
9:50 PM57 °FPassing clouds.14 mph88%29.98 "HgN/A
9:20 PM57 °FPartly sunny.14 mph82%29.98 "HgN/A
8:50 PM57 °FBroken clouds.14 mph88%29.95 "HgN/A
7:50 PM57 °FPartly sunny.10 mph88%29.95 "HgN/A
7:20 PM55 °FPartly sunny.6 mph94%29.95 "HgN/A
6:50 PM55 °FLight rain. Partly sunny.7 mph94%29.95 "Hg4 mi
6:20 PM55 °FPartly sunny.7 mph94%29.98 "HgN/A
5:50 PM55 °FBroken clouds.8 mph94%29.98 "HgN/A
5:20 PM55 °FLight rain. Broken clouds.8 mph94%29.98 "Hg4 mi
4:50 PM55 °FRain. Broken clouds.7 mph94%29.98 "Hg4 mi
4:20 PM57 °FDrizzle. Partly sunny.12 mph82%29.98 "Hg5 mi
3:50 PM57 °FDrizzle. Partly sunny.13 mph82%29.98 "HgN/A
3:20 PM57 °FLight rain. Partly sunny.15 mph82%29.98 "HgN/A
2:50 PM57 °FPartly sunny.14 mph82%29.98 "HgN/A
2:20 PM57 °FDrizzle. Partly sunny.15 mph82%29.98 "HgN/A
1:50 PM57 °FLight rain. Scattered clouds.16 mph82%29.98 "HgN/A
1:20 PM57 °FPartly sunny.16 mph77%29.98 "HgN/A
12:50 PM59 °FPartly sunny.18 mph72%29.98 "HgN/A
12:20 PM59 °FBroken clouds.17 mph77%29.98 "HgN/A
11:50 AM59 °FBroken clouds.15 mph77%29.98 "HgN/A
11:20 AM59 °FBroken clouds.17 mph77%29.98 "HgN/A
10:50 AM57 °FBroken clouds.16 mph82%29.98 "HgN/A
10:20 AM57 °FPartly sunny.16 mph82%29.98 "HgN/A
9:50 AM57 °FBroken clouds.14 mph82%29.98 "HgN/A
9:20 AM57 °FPartly sunny.15 mph88%29.95 "HgN/A
8:50 AM57 °FPartly sunny.14 mph88%29.95 "HgN/A
8:20 AM55 °FPartly sunny.13 mph94%29.95 "HgN/A
Weather by CustomWeather, © 2014

See weather overviewHow to use our weather pages